FW0822 Weather Reports


time (UTC)temp
C
wind
direction
speed
KPH
gust
KPH
rain 1hr
cm
rain 24hr
cm
rain mn
cm
humidity
%
barometer
mb
20260503050037 7 240 0.0 0.0 0.00 0.00 0.00 70 1017.0
20260503044530 7 240 0.0 0.0 0.00 0.00 0.00 69 1016.9
20260503043029 7 240 0.0 0.0 0.00 0.00 0.00 69 1017.0
20260503041527 8 240 0.0 0.0 0.00 0.00 0.00 68 1016.8
20260503040034 8 240 0.0 0.0 0.00 0.00 0.00 68 1016.7
20260503034534 8 240 0.0 0.0 0.00 0.00 0.00 67 1016.5
20260503033027 8 240 0.0 0.0 0.00 0.00 0.00 66 1016.4
20260503031519 9 240 0.0 0.0 0.00 0.00 0.00 65 1016.4
20260503030120 9 240 0.0 0.0 0.00 0.00 0.00 65 1016.4
20260503024518 9 240 0.0 0.0 0.00 0.00 0.00 65 1016.2
20260503023017 10 240 0.0 0.0 0.00 0.00 0.00 66 1016.1
20260503021515 10 240 0.0 0.0 0.00 0.00 0.00 67 1016.0
20260503020051 10 240 0.0 0.0 0.00 0.00 0.00 67 1015.9
20260503014548 11 240 0.0 0.0 0.00 0.00 0.00 66 1015.8
20260503011544 11 240 0.0 0.0 0.00 0.00 0.00 63 1015.1
20260503010041 12 240 0.0 0.0 0.00 0.00 0.00 62 1014.8
20260503004544 12 240 0.0 0.0 0.00 0.00 0.00 60 1014.7
20260503001545 13 240 0.0 0.0 0.00 0.00 0.00 59 1014.4
20260503000044 13 240 0.0 0.0 0.00 0.00 0.00 58 1014.2
20260502234540 13 155 0.0 0.0 0.00 0.00 0.00 55 1014.0
20260502231557 13 155 0.0 0.0 0.00 0.00 0.00 54 1013.3
20260502230140 14 155 0.0 0.0 0.00 0.00 0.00 53 1013.4
20260502224539 14 155 0.0 0.0 0.00 0.00 0.00 51 1013.2
20260502221542 14 146 0.0 0.0 0.00 0.00 0.00 51 1012.8
20260502220042 14 146 0.0 0.0 0.00 0.00 0.00 51 1012.7
20260502214537 14 146 0.0 0.0 0.00 0.00 0.00 52 1012.5
20260502211544 14 146 0.0 0.0 0.00 0.00 0.00 52 1012.6
20260502210035 14 146 0.0 0.0 0.00 0.00 0.00 51 1012.6
20260502204541 14 146 0.0 0.0 0.00 0.00 0.00 51 1012.8
20260502201530 13 146 0.0 0.0 0.00 0.00 0.00 54 1012.9
20260502200028 13 146 0.0 0.0 0.00 0.00 0.00 54 1013.4
20260502194525 13 144 0.0 0.0 0.00 0.00 0.00 55 1013.5
20260502191524 12 144 0.0 0.0 0.00 0.00 0.00 55 1013.8
20260502190021 12 144 0.0 0.0 0.00 0.00 0.00 55 1014.2
20260502184522 12 139 0.0 0.0 0.00 0.00 0.00 56 1014.2
20260502181522 12 139 0.0 0.0 0.00 0.00 0.00 54 1014.1
20260502161511 11 199 0.0 0.0 0.00 0.00 0.00 58 1015.4
20260502151509 11 192 0.0 0.0 0.00 0.00 0.00 56 1015.7
20260502121601 11 244 0.0 0.0 0.00 0.00 0.00 77 1014.7
20260502120111 11 244 0.0 0.0 0.00 0.00 0.00 77 1014.6
20260502114602 11 244 0.0 0.0 0.00 0.00 0.00 78 1014.3
20260502111600 11 244 0.0 0.0 0.00 0.00 0.00 79 1014.2
20260502110056 11 244 0.0 0.0 0.00 0.00 0.00 79 1014.4
20260502104555 11 244 0.0 0.0 0.00 0.00 0.00 80 1014.3
20260502101555 11 244 0.0 0.0 0.00 0.00 0.00 81 1014.6
20260502100113 11 244 0.0 0.0 0.00 0.00 0.00 81 1014.5
20260502070040 11 244 0.0 0.0 0.00 0.00 0.00 83 1013.4
20260502064541 11 244 0.0 0.0 0.00 0.00 0.00 83 1013.6
20260502061539 11 244 0.0 0.0 0.00 0.00 0.00 83 1014.0
20260502060037 11 244 0.0 0.0 0.00 0.00 0.00 82 1014.2
20260502054537 11 244 0.0 0.0 0.00 0.00 0.00 82 1013.9
20260502051557 11 244 0.0 0.0 0.00 0.00 0.00 81 1013.7